Location: Azenweiler
(47.8027°N, 9.4096°E)
Time: 15:32:43
(UTC+00:00)

BREEZE-M DEB (TANK) - Pass Details

Date: 10 December 2025
Orbit: 310 x 11514 km, 49.7° (Epoch: 16 January)

Event Time Altitude Azimuth Distance (km) Brightness Sun altitude
Exits shadow 05:12:28 55° 286° (WNW) 481 2.7 -17.2°
Maximum altitude 05:12:55 71° 346° (NNW) 399 2.5 -17.1°
Drops below altitude 10° 05:15:10 10° 73° (ENE) 1,215 6.0 -16.8°
Sets 05:16:48 0° 76° (ENE) 2,053 7.4 -16.5°
